Tacoma Narrows, WA
on Saturday, December 29, 2012

Saturday
Previous Day Next Day
Daily Summary
 ActualAverageRecord
Temperature
Mean Temperature °F °F  
Max Temperature 41°F 43°F 53°F (1997)
Min Temperature 39°F 36°F 30°F (2003)
Degree Days
Heating Degree Days 25    
Moisture
Dew Point 37°F   
Average Humidity 90    
Maximum Humidity 93    
Minimum Humidity 73    
Precipitation
Precipitation 0.05 in in in ()
Wind
Wind Speed 1 mph   
Max Wind Speed 6 mph   
Max Gust Speed mph   
Visibility 8 miles   
Events Rain   
Averages and records for this station are not official NWS values.
Key: T is trace of precipitation, MM is missing value
Source: NWS Daily Summary
Seasonal Weather Averages
Time(PST)TemperatureDew PointHumidity Pressure Visibility Wind DirectionWind SpeedGust SpeedPrecipitationEvents Conditions
12:02 AM 39.2°F 37.4°F 93% 30.16 in 2.5 miles Calm Calm - N/A   Overcast
12:11 AM 39.2°F 37.4°F 93% 30.16 in 5.0 miles Calm Calm - N/A   Overcast
12:53 AM 39.9°F 37.0°F 89% 30.17 in 9.0 miles Calm Calm - N/A   Overcast
1:25 AM 39.2°F 37.4°F 93% 30.16 in 3.0 miles Calm Calm - N/A   Mostly Cloudy
1:28 AM 39.2°F 37.4°F 93% 30.16 in 2.5 miles Calm Calm - N/A   Mostly Cloudy
1:35 AM 39.2°F 37.4°F 93% 30.16 in 4.0 miles Calm Calm - N/A   Mostly Cloudy
1:53 AM 39.9°F 37.9°F 93% 30.18 in 7.0 miles Calm Calm - N/A   Overcast
2:53 AM 39.9°F 37.9°F 93% 30.19 in 6.0 miles Calm Calm - N/A   Overcast
3:53 AM 41.0°F 39.0°F 93% 30.18 in 10.0 miles Calm Calm - N/A   Overcast
4:06 AM 39.2°F 37.4°F 93% 30.17 in 10.0 miles SSW 4.6 mph - N/A   Overcast
4:20 AM 39.2°F 37.4°F 93% 30.17 in 10.0 miles SSW 3.5 mph - N/A   Overcast
4:27 AM 39.2°F 37.4°F 93% 30.17 in 10.0 miles South 3.5 mph - N/A   Overcast
4:53 AM 39.9°F 37.9°F 93% 30.18 in 10.0 miles Calm Calm - N/A   Overcast
5:24 AM 39.2°F 37.4°F 93% 30.17 in 9.0 miles Calm Calm - N/A   Overcast
5:33 AM 39.2°F 37.4°F 93% 30.17 in 9.0 miles Calm Calm - N/A   Overcast
5:42 AM 39.2°F 37.4°F 93% 30.17 in 9.0 miles Calm Calm - N/A   Overcast
5:51 AM 39.2°F 37.4°F 93% 30.17 in 10.0 miles Calm Calm - N/A   Overcast
5:53 AM 39.9°F 37.9°F 93% 30.18 in 10.0 miles Calm Calm - N/A   Overcast
6:11 AM 39.2°F 37.4°F 93% 30.17 in 9.0 miles Calm Calm - N/A   Overcast
6:31 AM 41.0°F 37.4°F 87% 30.17 in 10.0 miles Calm Calm - N/A   Overcast
6:53 AM 39.9°F 37.0°F 89% 30.18 in 10.0 miles Calm Calm - N/A   Overcast
7:53 AM 39.9°F 36.0°F 86% 30.18 in 10.0 miles SSW 4.6 mph - N/A   Overcast
8:53 AM 39.9°F 34.0°F 79% 30.20 in 10.0 miles SW 3.5 mph - N/A   Overcast
9:53 AM 39.9°F 33.1°F 77% 30.21 in 10.0 miles SW 3.5 mph - N/A   Overcast
10:53 AM 39.9°F 34.0°F 79% 30.19 in 10.0 miles SSE 4.6 mph - 0.00 in   Overcast
11:53 AM 41.0°F 34.0°F 76% 30.17 in 10.0 miles Calm Calm - N/A   Overcast
12:53 PM 41.0°F 33.1°F 73% 30.17 in 10.0 miles South 4.6 mph - N/A   Overcast
1:53 PM 41.0°F 34.0°F 76% 30.16 in 10.0 miles South 5.8 mph - 0.00 in Rain Light Rain
2:53 PM 39.2°F 35.6°F 87% 30.15 in 10.0 miles SSW 5.8 mph - N/A   Overcast
3:53 PM 39.9°F 36.0°F 86% 30.16 in 10.0 miles SSW 3.5 mph - 0.01 in   Overcast
4:03 PM 39.2°F 37.4°F 93% 30.15 in 10.0 miles Calm Calm - N/A   Overcast
4:53 PM 39.9°F 36.0°F 86% 30.17 in 10.0 miles Calm Calm - N/A   Overcast
5:53 PM 39.0°F 37.0°F 93% 30.17 in 4.0 miles Calm Calm - 0.02 in Rain Light Rain
6:53 PM 39.9°F 37.0°F 89% 30.18 in 10.0 miles Calm Calm - 0.00 in   Overcast
7:05 PM 39.2°F 37.4°F 93% 30.17 in 9.0 miles Calm Calm - N/A   Overcast
7:16 PM 39.2°F 37.4°F 93% 30.17 in 7.0 miles Calm Calm - N/A   Overcast
7:53 PM 39.9°F 37.0°F 89% 30.18 in 10.0 miles Calm Calm - N/A   Overcast
8:17 PM 39.2°F 37.4°F 93% 30.18 in 8.0 miles Calm Calm - N/A   Overcast
8:39 PM 39.2°F 37.4°F 93% 30.18 in 8.0 miles Calm Calm - N/A   Overcast
8:53 PM 39.9°F 37.0°F 89% 30.20 in 8.0 miles Calm Calm - N/A   Overcast
9:13 PM 39.2°F 37.4°F 93% 30.19 in 6.0 miles Calm Calm - 0.01 in Rain Light Rain
9:53 PM 39.9°F 37.0°F 89% 30.21 in 9.0 miles Calm Calm - 0.01 in   Overcast
10:53 PM 39.9°F 37.0°F 89% 30.23 in 10.0 miles Calm Calm - N/A   Overcast
11:02 PM 39.2°F 37.4°F 93% 30.22 in 9.0 miles Calm Calm - N/A   Overcast
11:41 PM 39.2°F 37.4°F 93% 30.23 in 3.0 miles NW 3.5 mph - 0.00 in Rain Light Rain
11:49 PM 39.2°F 37.4°F 93% 30.23 in 2.5 miles Calm Calm - 0.00 in Rain Light Rain
11:53 PM 39.9°F 37.0°F 89% 30.24 in 3.0 miles Calm Calm - 0.01 in Rain Light Rain
11:59 PM 39.2°F 37.4°F 93% 30.23 in 3.0 miles North 3.5 mph - 0.00 in Rain Light Rain
Moon Phase
Dec. 29 Jan. 04 Jan. 11 Jan. 18 Jan. 26
Sunrise:07:57 AM (PST) Moon Rise:06:14 PM (PST)12/29
Sunset:04:28 PM (PST) Moon Set:08:27 AM (PST)12/29

Copyright © 2014 The Weather Underground, Inc.